Flag for U.S.A. Weather past 2 weeks in Oklahoma City, Oklahoma, U.S.A.

Now
55 °F

Passing clouds.


Feels Like: 51 °F
Forecast: 46 / 59 °F
Wind: 15 mph from Southeast

Location: Will Rogers World Airport


UV Index: 0 (Low)

Visibility: 10 mi


Pressure: 29.98 "Hg

Humidity: 47%

Dew point: 35 °F

Location of Oklahoma CityLocation

Historic Weather in Oklahoma City

°F

Oklahoma City temperature yesterday

Maximum temperature yesterday: 69 °F (at 2:52 PM)
Minimum temperature yesterday: 46 °F (at 3:52 AM)
Average temperature yesterday: 57 °F

Past Weeks' High & Low Weather Summary

 TemperatureHumidityPressure
High86 °F (Apr 10, 2:52 PM)96% (Apr 7, 12:52 AM)30.28 "Hg (Apr 7, 12:52 AM)
Low30 °F (Apr 15, 2:52 AM)12% (Apr 15, 2:52 PM)29.39 "Hg (Apr 13, 2:52 PM)
Average60 °F52%29.90 "Hg
* Reported Apr 1 10:52 PM — Apr 16 10:52 PM, Oklahoma City, Weather by CustomWeather, © 2014

Note: Actual official high and low records may vary slightly from our data, if they occured in-between our weather recording intervals... More about our weather records

Advertising

Historic Weather Conditions — Data for Previous 24 hours

 ConditionsComfort  
Time TempWeatherWind HumidityBarometerVisibility
10:52 PM
Apr 16
55 °FPassing clouds.15 mph47%29.98 "Hg10 mi
9:52 PM57 °FPassing clouds.15 mph42%29.98 "Hg10 mi
8:52 PM57 °FPartly sunny.12 mph41%29.95 "Hg10 mi
7:52 PM61 °FBroken clouds.14 mph35%29.92 "Hg10 mi
6:52 PM66 °FScattered clouds.14 mph27%29.90 "Hg10 mi
5:52 PM68 °FScattered clouds.17 mph25%29.88 "Hg10 mi
4:52 PM69 °FScattered clouds.24 mph22%29.86 "Hg10 mi
3:52 PM69 °FScattered clouds.23 mph21%29.87 "Hg10 mi
2:52 PM69 °FScattered clouds.24 mph21%29.88 "Hg10 mi
1:52 PM67 °FScattered clouds.29 mph22%29.90 "Hg10 mi
12:52 PM64 °FSunny.32 mph25%29.91 "Hg10 mi
11:52 AM63 °FScattered clouds.32 mph26%29.93 "Hg10 mi
10:52 AM60 °FScattered clouds.29 mph27%29.96 "Hg10 mi
9:52 AM55 °FPartly sunny.33 mph34%29.94 "Hg10 mi
8:52 AM51 °FBroken clouds.32 mph41%29.96 "Hg10 mi
7:52 AM47 °FPassing clouds.24 mph48%29.95 "Hg10 mi
6:52 AM46 °FPassing clouds.18 mph50%29.95 "Hg10 mi
5:52 AM46 °FPassing clouds.21 mph50%29.95 "Hg10 mi
4:52 AM46 °FPassing clouds.14 mph48%29.96 "Hg10 mi
3:52 AM46 °FPassing clouds.14 mph46%29.97 "Hg10 mi
2:52 AM47 °FPassing clouds.15 mph41%29.97 "Hg10 mi
1:52 AM48 °FPassing clouds.13 mph39%29.99 "Hg10 mi
12:52 AM49 °FPassing clouds.14 mph38%30.00 "Hg10 mi
Weather by CustomWeather, © 2014

See weather overview